Location: Aalsum
(53.3404°N, 6.0062°E)
Time: 09:46:13
(UTC+00:00)

CZ-4C R/B - Pass Details

Date: 28 January 2023
Orbit: 456 x 613 km, 98.1° (Epoch: 19 March)

Event Time Altitude Azimuth Distance (km) Brightness Sun altitude
Rises 15:50:00 0° 46° (NE) 2,770 6.2 1.8°
Enters shadow 17:08:54 -34° 4° (N) 8,093 9.1 -8.7°
Maximum altitude 17:28:50 35° 97° (E) 894 3.9 -11.5°
